Theta_e
306 305 306 306 313 315 316 317 317 317 316 315 314 314 315 315 315 313 313 315 315 324 329 326 326 327 327 326 325 325 325 325 325 325 326 326 328 327 329 328 328 329 328 323
309 306 306 306 306 310 315 316 316 315 314 314 314 316 316 317 316 316 315 314 315 328 327 326 325 324 325 325 324 324 325 325 324 323 323 324 325 327 327 327 327 328 327 323
316 312 308 307 306 307 309 313 314 314 314 313 314 317 319 318 317 318 319 314 319 330 328 327 325 323 324 324 324 324 324 324 322 322 322 324 324 326 326 326 325 327 326 325
315 316 316 311 307 307 307 308 310 311 313 314 319 322 319 319 319 319 319 319 319 328 328 327 325 322 323 323 324 324 324 323 323 321 323 324 325 326 326 327 325 325 327 325
309 315 317 317 314 308 308 309 311 311 312 315 317 321 318 319 319 319 319 319 316 328 328 327 325 323 322 324 323 323 324 323 323 322 322 324 324 325 325 325 325 325 325 326
307 308 309 313 313 312 309 309 310 312 314 318 320 322 319 318 319 319 319 320 317 327 328 326 324 322 322 323 324 324 323 323 323 321 321 323 322 322 323 323 323 320 320 322
307 308 307 307 307 308 311 312 315 318 318 319 317 320 319 318 319 319 320 320 319 322 328 326 324 322 322 322 323 324 324 324 323 322 321 321 322 321 322 322 321 320 319 319
308 308 307 307 307 309 310 312 315 319 322 320 318 321 323 322 322 321 321 319 324 328 328 326 324 322 322 322 323 324 324 324 323 323 322 321 321 321 320 321 320 319 319 319
313 309 313 308 308 308 310 314 314 316 321 321 320 321 321 323 324 323 321 318 326 328 328 326 325 323 323 322 322 323 324 324 323 323 322 321 321 320 320 320 319 319 319 318
314 317 316 317 313 308 312 313 316 315 317 319 320 322 324 325 326 322 322 320 324 328 328 327 325 324 323 323 322 323 323 324 324 324 323 321 320 320 319 319 318 318 317 317
310 315 316 317 315 310 310 312 314 316 317 317 320 318 323 324 323 323 323 322 320 321 327 326 326 324 324 323 322 322 322 322 323 324 323 322 320 319 319 319 318 317 317 318
309 311 317 318 316 315 317 314 316 318 319 318 318 319 322 320 322 324 322 322 321 318 317 326 325 325 324 323 323 322 321 321 322 322 323 322 321 320 319 318 317 316 315 316
308 313 314 319 317 316 313 314 319 317 315 318 319 316 322 322 320 319 320 322 320 321 319 322 325 326 324 323 323 322 322 321 321 322 323 323 322 320 319 319 317 317 317 315
307 310 307 312 318 315 311 310 316 318 316 316 314 315 324 323 321 319 319 321 320 322 321 321 324 324 325 325 324 323 322 322 321 321 321 323 322 321 320 320 318 317 318 318
308 311 310 309 310 310 309 308 309 318 316 316 318 320 323 321 322 322 320 322 320 323 322 320 320 322 321 325 325 324 323 322 322 321 321 321 322 321 320 320 319 319 318 318
309 311 310 311 310 311 311 310 308 311 313 312 310 309 313 318 319 320 319 319 320 321 320 318 318 318 319 320 324 325 324 323 322 322 321 321 321 322 320 320 319 319 319 319
310 310 310 312 312 312 309 309 309 309 310 312 309 318 315 320 318 317 316 317 319 319 318 317 316 317 318 317 316 318 325 324 323 323 322 322 321 322 321 320 320 320 320 320
307 308 308 311 310 312 311 309 309 316 317 315 315 314 316 316 315 314 314 315 318 318 317 315 314 315 314 312 312 314 321 324 324 323 323 323 322 322 322 321 321 321 321 320
304 307 305 308 310 310 308 312 312 315 317 315 315 314 313 313 314 312 312 316 316 315 313 312 311 313 310 308 309 311 311 315 324 324 323 323 323 323 322 322 321 321 320 318
303 304 305 307 309 310 311 312 311 310 319 314 314 314 313 312 313 312 313 315 313 311 308 307 308 308 306 305 306 307 306 306 307 316 323 323 323 323 323 319 316 314 313 308
303 303 307 306 307 311 311 311 310 312 314 313 312 311 312 312 311 310 314 310 307 305 304 303 304 305 303 302 303 302 302 301 302 304 312 319 321 320 314 310 307 304 299 295
305 303 302 305 307 309 309 311 312 313 311 311 310 310 309 308 311 313 309 305 302 301 300 300 301 302 299 298 300 300 298 299 300 302 300 301 304 304 302 303 296 293 292 290
310 306 307 307 307 308 309 311 313 311 309 308 307 307 309 312 313 310 305 301 298 297 296 296 299 299 297 296 296 297 296 296 296 297 295 293 293 293 293 291 290 289 289 288
310 308 311 309 310 311 311 311 312 310 308 307 308 310 311 309 306 303 301 297 295 292 292 292 294 297 295 294 293 293 293 293 292 291 291 290 290 289 289 289 288 287 287 285
307 309 312 313 312 311 312 310 310 309 308 309 306 305 305 303 301 299 296 294 292 290 290 290 290 291 294 292 291 290 290 290 287 286 285 285 284 284 284 284 284 284 284 283
309 308 310 312 311 309 312 311 310 309 308 307 304 300 299 299 299 296 293 291 289 288 288 288 288 289 289 290 289 288 288 287 286 285 284 284 283 283 283 283 282 283 284 284
Wind_Speed
5 4 12 11 11 10 10 8 11 1 5 7 9 14 9 10 8 10 9 9 8 7 8 16 23 30 29 25 23 23 21 18 16 15 13 12 10 14 12 26 37 40 45 39
4 17 11 10 9 10 12 14 20 12 11 13 13 20 10 8 8 11 13 10 7 11 10 10 19 24 28 28 25 24 22 19 17 15 15 14 18 13 16 17 41 38 43 39
15 6 16 13 14 15 15 17 14 15 14 16 12 20 8 6 7 13 18 9 7 18 18 15 16 21 24 27 27 27 24 20 16 15 14 14 17 16 18 19 31 42 44 41
13 16 17 13 18 16 18 17 17 15 10 8 6 13 9 9 15 14 17 16 8 14 17 16 15 16 22 24 26 25 23 20 18 14 16 17 18 15 16 22 25 38 42 40
11 8 19 22 19 17 13 17 15 16 9 4 4 4 4 4 9 15 16 17 8 16 20 21 19 20 22 27 28 25 23 21 19 15 16 20 17 17 24 22 31 32 35 40
13 7 4 7 8 15 12 14 15 13 5 10 7 6 6 4 8 7 15 17 4 15 17 15 14 20 20 26 24 25 25 23 19 17 16 19 20 22 24 26 28 29 30 34
8 22 16 9 7 7 6 3 4 3 2 5 6 5 14 10 12 16 19 17 15 14 19 18 18 16 22 25 25 25 27 24 23 21 20 20 22 24 28 28 27 27 27 28
7 7 13 7 18 6 8 9 5 8 5 4 7 5 5 4 7 13 12 9 3 13 17 20 19 17 24 27 26 24 24 23 24 24 24 24 26 27 25 28 29 29 31 31
5 6 3 5 12 15 9 7 8 5 3 3 4 5 7 5 11 17 12 18 7 14 15 18 17 18 24 27 29 28 26 23 25 24 24 24 28 28 27 25 27 28 28 29
5 8 5 3 4 12 10 5 4 3 8 6 4 4 5 3 11 19 16 14 10 4 10 14 16 16 25 27 28 30 29 26 26 24 26 24 28 31 30 28 27 25 27 30
7 4 4 1 2 4 5 10 1 4 4 10 1 5 5 6 8 9 14 11 15 6 5 7 15 19 24 26 28 29 31 27 26 26 25 24 26 29 32 34 31 31 31 30
8 5 4 5 4 4 4 4 6 4 2 3 4 5 2 6 6 7 8 14 14 13 13 12 11 13 23 25 27 29 30 30 29 28 27 27 27 27 29 31 34 34 35 34
8 5 4 4 3 7 6 6 5 4 4 5 3 3 3 12 12 7 8 13 17 18 15 13 5 6 8 24 25 27 30 32 32 31 28 28 29 30 29 32 32 33 32 38
6 5 3 2 2 1 2 6 8 4 3 1 12 6 4 4 9 6 10 10 5 12 13 14 8 8 4 10 16 30 31 33 35 35 33 29 30 31 31 33 33 33 33 33
5 3 5 6 2 3 3 3 4 3 1 1 3 1 5 5 10 1 10 8 11 11 11 13 13 10 10 10 17 18 21 31 31 33 35 35 30 30 31 33 35 34 34 33
3 3 2 2 6 6 2 4 3 4 4 10 9 0 3 3 11 4 4 10 10 10 10 11 12 11 10 16 5 19 22 21 28 33 34 35 36 32 33 33 33 33 34 33
6 4 4 1 8 4 3 2 5 5 9 13 3 2 7 13 12 9 4 5 7 9 8 8 9 9 10 14 16 15 20 23 26 25 28 32 34 36 35 35 34 34 33 31
2 3 3 3 5 0 3 10 2 12 9 11 10 7 10 14 10 8 5 5 5 8 8 8 6 7 15 17 23 21 6 25 26 25 26 28 32 33 31 32 31 30 30 32
6 2 1 1 1 6 4 5 4 3 5 5 8 7 6 6 4 6 7 8 6 7 8 9 14 11 12 17 22 26 20 14 30 35 32 30 28 27 31 31 29 30 29 30
6 4 3 2 1 3 2 5 6 4 3 2 7 6 7 7 4 2 4 8 6 6 12 14 15 14 18 18 19 19 18 19 15 2 22 23 28 28 26 27 29 28 29 27
4 1 7 2 1 6 6 6 6 3 4 1 5 7 7 5 2 1 7 9 8 8 12 16 17 16 16 18 15 13 12 13 12 6 9 17 20 25 26 26 26 29 30 30
7 6 3 3 2 6 4 2 1 3 3 4 5 5 6 5 6 7 8 8 9 11 18 21 18 17 18 20 14 10 10 8 6 9 14 16 22 25 27 30 28 30 34 34
4 5 5 6 6 4 5 4 2 4 2 5 6 4 6 6 5 7 6 7 8 10 13 16 15 16 16 18 17 10 10 6 9 15 21 22 23 26 29 31 32 28 29 27
6 4 1 4 3 3 4 5 4 3 8 6 7 8 7 7 8 7 7 8 8 10 11 14 13 12 13 16 14 11 9 11 17 19 20 24 26 26 27 28 28 28 25 27
4 2 3 3 3 1 4 4 3 10 10 11 11 10 9 9 8 6 7 9 8 12 15 14 13 12 11 11 12 10 9 14 21 21 24 23 28 30 31 29 26 32 28 29
4 4 2 1 7 3 2 9 9 11 6 7 9 9 10 9 7 7 8 9 11 12 14 14 13 12 12 10 11 10 9 14 19 20 21 24 25 30 34 37 42 40 43 40
Wind_Direction
222 185 219 196 213 231 239 248 251 191 237 292 265 268 265 287 318 293 271 226 239 177 160 150 149 162 166 168 169 166 169 175 182 188 190 199 192 200 188 166 168 168 172 170
257 236 210 213 222 236 238 248 260 275 266 261 272 271 241 265 275 293 278 248 204 144 150 153 152 158 167 169 175 165 172 174 182 197 212 208 204 197 194 154 169 161 168 170
223 230 198 203 219 228 236 236 250 249 267 266 271 276 290 295 296 303 297 243 176 165 168 169 172 172 169 169 176 165 173 175 188 195 196 208 208 200 189 167 141 160 173 177
247 239 246 223 223 209 237 230 242 250 243 255 183 280 261 273 283 281 280 284 200 179 175 169 175 174 172 172 178 168 169 170 183 188 196 204 187 175 181 183 148 161 170 175
224 199 203 225 224 213 234 246 235 240 242 223 220 268 320 180 272 273 273 278 188 183 179 179 181 168 167 170 177 174 174 172 183 184 198 189 176 181 171 166 170 168 174 176
238 298 212 231 228 229 233 250 264 244 214 245 171 178 256 210 240 277 286 269 226 188 188 177 157 153 160 170 174 175 177 174 182 175 185 174 167 160 165 164 165 165 165 173
258 253 260 257 280 262 185 173 244 249 228 240 195 220 261 266 267 262 263 269 284 209 171 162 160 165 167 172 175 172 180 176 185 175 175 180 171 167 167 164 166 164 165 164
193 287 214 218 214 199 208 179 179 210 189 243 209 235 246 245 281 294 258 258 195 164 173 167 165 166 172 173 177 173 175 175 186 184 179 181 181 175 170 170 169 170 169 171
207 244 266 227 194 187 228 227 195 181 180 128 223 283 302 14 2 344 32 2 219 174 174 169 161 173 173 174 180 175 173 176 187 187 185 185 182 178 174 175 179 177 175 172
259 262 258 296 124 220 203 175 210 241 197 236 227 235 246 360 48 328 3 7 40 331 180 171 172 173 178 176 178 177 177 176 183 190 190 188 188 191 186 179 182 183 184 176
358 211 260 297 26 208 176 226 179 133 152 220 150 262 204 162 104 316 360 349 7 7 226 244 185 176 174 176 178 178 181 178 182 190 190 189 189 193 197 194 190 191 191 193
334 300 222 209 216 231 185 206 160 156 170 155 155 267 100 179 162 138 351 330 342 349 339 198 194 188 171 177 181 181 181 184 189 187 191 192 197 197 198 196 198 194 195 194
318 341 271 176 335 19 31 18 18 127 126 179 150 250 89 88 56 37 51 333 6 20 22 24 96 185 224 177 181 185 185 185 187 189 191 190 195 198 200 208 204 197 199 203
296 260 4 38 191 212 359 32 35 52 65 270 219 225 121 121 119 16 349 139 255 9 24 42 38 51 216 251 224 187 191 187 186 189 192 193 194 196 199 206 206 204 203 205
152 275 332 298 353 211 107 13 2 122 237 88 302 110 203 179 144 196 347 15 116 38 19 16 32 26 12 235 216 245 206 191 190 191 193 197 196 196 200 201 206 209 211 212
303 272 329 281 351 38 307 291 271 246 132 290 262 290 25 105 96 109 45 58 63 82 53 18 30 29 347 0 269 215 216 222 197 197 200 195 194 192 199 200 201 205 208 208
341 345 358 323 336 303 319 5 217 222 172 196 274 25 93 101 97 97 49 61 56 40 56 95 29 12 12 8 345 342 211 209 215 222 204 196 192 195 197 200 201 204 204 205
309 341 7 287 340 252 275 309 47 97 53 87 94 75 84 117 111 98 67 52 52 31 30 37 44 29 1 4 358 355 351 209 213 218 215 209 196 193 194 195 198 201 205 206
170 144 312 157 283 293 323 20 14 324 54 85 95 79 67 150 114 49 38 83 61 24 17 12 8 28 24 13 1 357 354 307 209 210 208 207 203 196 189 193 194 195 191 191
187 145 133 72 167 241 219 317 344 309 114 175 111 92 62 51 72 304 58 92 61 38 20 3 5 12 18 13 8 12 7 15 29 297 219 203 202 196 190 190 184 177 179 171
170 75 199 178 234 286 272 309 345 80 223 161 108 94 86 79 131 341 86 69 55 30 15 2 6 9 12 7 11 28 18 26 24 44 160 169 176 177 179 170 167 162 153 142
191 160 170 138 140 255 281 351 144 246 315 86 109 125 97 80 51 78 71 62 40 23 12 3 352 355 8 12 5 30 37 16 54 96 93 112 146 151 155 156 143 136 132 121
224 180 170 171 204 265 359 279 127 336 239 128 105 84 91 65 45 37 46 49 50 36 23 358 341 344 3 19 18 29 28 40 80 103 100 91 99 115 127 123 121 116 117 114
317 332 261 133 204 71 343 12 57 307 103 101 88 82 71 80 36 32 23 27 32 30 30 16 360 2 10 19 28 34 50 88 86 83 87 97 97 96 99 106 109 110 110 112
254 299 334 304 13 289 41 41 340 94 91 88 71 64 65 76 51 33 25 22 15 17 22 21 9 2 14 25 35 38 67 102 91 89 90 87 91 92 89 85 91 99 100 108
4 7 11 214 353 324 337 329 301 91 84 89 100 75 65 73 66 69 51 30 21 18 24 33 17 15 19 33 45 56 84 100 100 95 97 100 100 101 101 97 92 98 112 116